Hlavní strana
METAR-TAF:

METAR-TAF

Letiště :

Southern Illinois Airport

Carbondale / Murphysboro, Illinois, Spojené státy americké

zeměpisná šířka: 37-46-59N, zeměpisná délka: 089-14-42W, výška: 125 m

Aktuální stav počasí

Zpráva byla vytvořena před 17 minutami, v 03:52 UTC
Jihojihovýchodní vítr 3 kt
Teplota -3°C
Vlhkost vzduchu 54%
Tlak 1034 hPa
Viditelnost: 16.1 km
Jasno

METAR: KMDH 220352Z AUTO 15003KT 10SM CLR M03/M11 A3052 RMK AO2 SLP340 T10281106

Čas: 22:09 (04:09 UTC)


TAF: chybějící

Stav a předpovědi počasí z více než 4 000 letišť (zprávy METAR a TAF).

Červené a žluté tečky na mapě představují dostupné meteorologické stanice.

Když kurzor umístíte na tečku, zobrazí se název stanice.

Pak kliknutím zobrazíte stav a předpověď počasí.

Chcete-li změnit mapu, kliknutím na zelené tlačítko se znaménkem +mapu přiblížíte, kliknutím na zelené tlačítko se znaménkem – mapu oddálíte a kliknutím na zelené šipky přejdete na sousední mapy.


METAR-TAF: